Flag for U.S.A. Weather past 2 weeks in Chula Vista, California, U.S.A.

Now
65 °F

Sunny.


Feels Like: 65 °F
Forecast: 54 / 79 °F
Wind: 8 mph from Northwest

Location: Brown Field Municipal Airport

Current Time: Apr 26, 2015 at 7:14:19 PM

Latest Report: Apr 26, 2015 at 5:53 PM


Visibility: 10 mi

Pressure: 29.92 "Hg

Humidity: 63%

Dew point: 52 °F

Location of Chula VistaLocation

Historic Weather in Chula Vista — Graph

°F

Chula Vista temperature yesterday

Maximum temperature yesterday: 65 °F (at 1:53 PM)
Minimum temperature yesterday: 56 °F (at 1:53 AM)
Average temperature yesterday: 59 °F

Past Weeks' High & Low Weather Summary

 TemperatureHumidityPressure
High79 °F (Apr 16, 10:53 AM)100% (Apr 19, 5:53 AM)30.08 "Hg (Apr 19, 5:53 AM)
Low47 °F (Apr 17, 5:53 AM)4% (Apr 16, 11:53 AM)29.86 "Hg (Apr 20, 2:53 PM)
Average62 °F65%29.96 "Hg
* Reported Apr 11 4:53 PM — Apr 26 4:53 PM, Chula Vista, Weather by CustomWeather, © 2015

Note: Actual official high and low records may vary slightly from our data, if they occured in-between our weather recording intervals... More about our weather records

Advertising

Chula Vista weather history for previous 24 hours

 ConditionsComfort  
Time TempWeatherWind HumidityBarometerVisibility
4:53 PM
Sun, Apr 26
66 °FSunny.9 mph61%29.92 "Hg10 mi
3:53 PM67 °FSunny.13 mph57%29.93 "Hg10 mi
2:53 PM68 °FSunny.14 mph55%29.95 "Hg10 mi
1:53 PM68 °FSunny.8 mph53%29.96 "Hg10 mi
12:53 PM67 °FScattered clouds.13 mph57%29.97 "Hg10 mi
11:53 AM66 °FPartly sunny.7 mph61%29.98 "Hg10 mi
10:53 AM64 °FPartly sunny.7 mph61%30.00 "Hg10 mi
9:53 AM62 °FPassing clouds.No wind67%30.01 "Hg10 mi
8:53 AM60 °FScattered clouds.5 mph80%29.99 "Hg10 mi
7:53 AM57 °FSunny.6 mph87%29.99 "Hg10 mi
6:53 AM54 °FClear.6 mph90%29.98 "Hg8 mi
5:53 AM53 °FClear.6 mph93%29.96 "Hg10 mi
4:53 AM56 °FOvercast.5 mph84%29.95 "Hg10 mi
3:53 AM56 °FOvercast.3 mph87%29.95 "Hg10 mi
2:53 AM56 °FMostly cloudy.5 mph84%29.94 "Hg10 mi
1:53 AM57 °FOvercast.3 mph81%29.94 "Hg10 mi
12:53 AM57 °FOvercast.8 mph81%29.96 "Hg10 mi
12:04 AM57 °FOvercast.9 mph81%29.97 "Hg10 mi
11:53 PM
Sat, Apr 25
57 °FOvercast.8 mph81%29.96 "Hg10 mi
11:03 PM58 °FOvercast.6 mph81%29.97 "Hg10 mi
10:53 PM58 °FMostly cloudy.6 mph81%29.96 "Hg10 mi
9:53 PM58 °FPassing clouds.8 mph87%29.95 "Hg10 mi
9:02 PM59 °FPassing clouds.12 mph93%29.95 "Hg10 mi
8:53 PM59 °FPassing clouds.14 mph93%29.93 "Hg10 mi
8:00 PM59 °FMostly cloudy.14 mph93%29.93 "Hg10 mi
Weather by CustomWeather, © 2015

See weather overviewHow to use our weather pages